Location: Unspecified
(42.1900°N, 71.3291°W)
Time: 04:56:20
(UTC-04:00)

ISS - Visible Passes

Search period start: 24 July 2017 00:00
Search period end: 03 August 2017 00:00
Orbit: 400 x 408 km, 51.6° (Epoch: 24 July)

Date Brightness Start Highest point End Pass type
(mag) Time Alt. Az. Time Alt. Az. Time Alt. Az.
24 Jul -0.7 01:13:46 10° NW 01:15:53 16° N 01:18:00 10° NE visible
24 Jul -2.1 02:50:03 10° NW 02:53:04 34° NNE 02:56:05 10° E visible
24 Jul -3.2 04:26:32 10° WNW 04:29:32 34° SW 04:32:32 10° SSE visible
24 Jul -3.7 21:06:14 10° SW 21:09:24 52° SE 21:12:34 10° ENE visible
24 Jul -1.6 22:43:11 10° W 22:46:01 27° NNW 22:48:52 10° NE visible
25 Jul -0.7 00:21:14 10° NW 00:23:18 15° N 00:25:21 10° NE visible
25 Jul -1.4 01:57:52 10° NW 02:00:36 24° NNE 02:03:20 10° ENE visible
25 Jul -4.0 03:34:05 10° WNW 03:37:19 67° SW 03:40:33 10° SE visible
25 Jul -2.4 21:50:29 10° W 21:53:34 39° NNW 21:56:40 10° NE visible
25 Jul -0.8 23:28:31 10° NW 23:30:42 16° N 23:32:52 10° NE visible
26 Jul -0.8 01:05:39 10° NW 01:06:56 16° NNW 01:06:56 16° NNW visible
26 Jul -3.4 20:57:57 10° WSW 21:01:11 67° NNW 21:04:25 10° NE visible
26 Jul -1.0 22:35:41 10° WNW 22:38:07 19° NNW 22:40:33 10° NE visible
27 Jul -0.9 00:13:19 10° NW 00:15:29 16° N 00:15:43 16° NNE visible
27 Jul -1.4 21:42:49 10° WNW 21:45:33 24° NNW 21:48:17 10° NE visible
27 Jul -0.8 23:20:49 10° NW 23:22:52 15° N 23:24:46 11° NE visible
28 Jul -0.5 00:57:18 10° NW 00:57:23 10° NW 00:57:23 10° NW visible
28 Jul -2.0 20:50:03 10° W 20:53:02 34° NNW 20:56:04 10° NE visible
28 Jul -0.8 22:28:07 10° NW 22:30:13 16° N 22:32:20 10° NE visible
29 Jul -0.9 00:05:03 10° NW 00:06:32 18° NNW 00:06:32 18° NNW visible
29 Jul -1.0 21:35:15 10° WNW 21:37:35 18° NNW 21:39:55 10° NE visible
29 Jul -1.2 23:12:43 10° NW 23:14:58 17° N 23:15:44 16° NNE visible
30 Jul -1.3 20:42:21 10° WNW 20:44:59 22° NNW 20:47:36 10° NE visible
30 Jul -0.9 22:20:14 10° NW 22:22:18 16° N 22:24:23 10° NE visible
30 Jul -0.8 23:56:36 10° NW 23:57:35 17° NNW 23:57:35 17° NNW visible
31 Jul -1.0 21:27:34 10° NW 21:29:38 16° N 21:31:42 10° NE visible
31 Jul -1.5 23:04:19 10° NW 23:06:49 22° NNE 23:06:49 22° NNE visible
01 Aug -1.0 20:34:42 10° NW 20:36:57 17° N 20:39:12 10° NE visible
01 Aug -1.3 22:12:00 10° NW 22:14:20 18° NNE 22:16:05 13° NE visible
01 Aug -0.8 23:48:07 10° NW 23:48:42 14° NW 23:48:42 14° NW visible
02 Aug -1.1 21:19:32 10° NW 21:21:39 16° N 21:23:45 10° NE visible
02 Aug -1.9 22:55:48 10° NW 22:57:59 29° N 22:57:59 29° N visible
